Лима

Peru     12˚06′00″S   72˚01′58″W
temp.,
°C
wind,
m/s
gust,
m/s
humid.,
%
clouds,
%
prec.,
mm/h
press.,
hPa
HPBL,
m
1 december, tue
tue101:00+20˚ssw129695 1.3 101129
04:00+19˚se1199100 3.9 101253
07:00+20˚sse1298100 4.3 1015106
10:00+23˚e1296100 1.9 1015342
13:00+24˚e1288100 7.2 1011505
16:00+26˚ene1278100 3.3 1007615
19:00+21˚ssw1297100 7.3 100927
22:00+19˚ssw1297100 2.6 101127
2 december, wed
wed201:00+19˚ssw2298100 10.4 101138
04:00+19˚ssw129697 1.4 101027
07:00+22˚s018988 1.4 101266
10:00+25˚n118669 2.1 1012518
13:00+25˚nnw129073 6.3 1009559
16:00+24˚wnw129393 2.8 1007261
19:00+21˚ssw229597 3.3 100831
22:00+19˚ssw2292100 0.0 101132
3 december, thu
thu301:00+19˚ssw2287100 0.0 100935
04:00+20˚ssw127870 0.0 100930
07:00+23˚s017085 0.1 101166
10:00+26˚nw2380100 1.4 1011763
13:00+25˚nnw249095 5.1 1008675
16:00+23˚wnw1497100 3.6 1007267
19:00+20˚wsw2296100 4.0 100868
22:00+20˚sw2291100 0.0 101131
4 december, fri
fri401:00+21˚wsw1284100 0.1 101156
04:00+20˚sw1190100 0.5 101139
07:00+21˚nne0087100 0.6 101385
10:00+22˚e1286100 0.1 1014183
13:00+29˚n225397 0.4 10101235
16:00+27˚nw127590 2.6 10071089
19:00+20˚ssw229787 6.3 101028
22:00+19˚ssw129792 1.5 101328
5 december, sat
sat501:00+19˚w119996 5.3 101229
04:00+20˚nw14100100 24.3 1012271
07:00+19˚wsw1199100 43.6 101557
10:00+20˚w1299100 5.4 1017160
13:00+21˚nw0195100 7.7 1015250
16:00+21˚nne1192100 0.2 1013235
19:00+20˚w1298100 0.4 1014124
22:00+19˚sw1193100 0.0 101529